Location: Unspecified
(0.0000°N, 0.0000°E)
Time: 13:30:35
(UTC+00:00)

Transit 2A Rocket - All Passes

Search period start: 24 July 2024 00:00
Search period end: 03 August 2024 00:00
Orbit: 582 x 911 km, 66.7° (Epoch: 24 July)

Date Brightness Start Highest point End Pass type
(mag) Time Alt. Az. Time Alt. Az. Time Alt. Az.
24 Jul - 00:18:42 10° W 00:20:06 11° WSW 00:21:29 10° WSW night (unlit)
24 Jul - 11:01:06 10° SSW 11:05:45 67° WNW 11:10:52 10° NNE daylight
24 Jul - 21:49:37 10° NNE 21:53:52 22° ENE 21:57:53 10° ESE night (unlit)
24 Jul - 23:31:38 10° NW 23:36:07 25° WSW 23:40:17 10° SSW night (unlit)
25 Jul - 10:17:11 10° S 10:21:43 51° ESE 10:26:40 10° NNE daylight
25 Jul - 22:46:38 10° NNW 22:52:07 55° WSW 22:57:06 10° S night (unlit)
26 Jul - 09:34:07 10° SSE 09:37:44 22° ESE 09:41:33 10° ENE daylight
26 Jul - 11:16:25 10° WSW 11:19:55 20° WNW 11:23:38 10° NNW daylight
26 Jul - 22:02:28 10° NNW 22:08:03 67° ENE 22:13:10 10° SSE night (unlit)
27 Jul - 10:31:13 10° SW 10:35:44 45° WNW 10:40:41 10° N daylight
27 Jul - 21:19:00 10° N 21:23:55 31° ENE 21:28:27 10° SE visible
27 Jul - 23:02:32 10° WNW 23:06:02 17° WSW 23:09:23 10° SSW night (unlit)
28 Jul - 09:46:56 10° SSW 09:51:39 77° ESE 09:56:49 10° NNE daylight
28 Jul - 20:36:50 10° NE 20:39:41 14° ENE 20:42:26 10° E visible
28 Jul - 22:16:57 10° NW 22:22:03 38° WSW 22:26:45 10° S night (unlit)
29 Jul - 09:03:26 10° S 09:07:38 32° ESE 09:12:10 10° NE daylight
29 Jul - 10:47:26 10° W 10:49:57 14° WNW 10:52:33 10° NW daylight
29 Jul - 21:32:25 10° NNW 21:38:01 85° WSW 21:43:07 10° SSE visible
30 Jul - 08:21:12 10° SE 08:23:39 14° ESE 08:26:11 10° ENE daylight
30 Jul - 10:01:30 10° SW 10:05:43 31° WNW 10:10:19 10° N daylight
30 Jul - 20:48:37 10° N 20:53:54 43° ENE 20:58:45 10° SE visible
30 Jul - 22:34:12 10° W 22:35:58 12° WSW 22:37:41 10° SW night (unlit)
31 Jul - 09:16:51 10° SSW 09:21:35 73° WNW 09:26:48 10° NNE daylight
31 Jul - 20:05:43 10° NNE 20:09:43 20° ENE 20:13:29 10° ESE visible
31 Jul - 21:47:28 10° NW 21:51:58 26° WSW 21:56:10 10° SSW visible
01 Aug - 08:32:59 10° S 08:37:32 47° ESE 08:42:31 10° NE daylight
01 Aug - 21:02:31 10° NNW 21:07:57 59° WSW 21:12:54 10° S visible
02 Aug - 07:50:00 10° SSE 07:53:32 21° ESE 07:57:18 10° ENE daylight
02 Aug - 09:31:58 10° WSW 09:35:42 22° WNW 09:39:42 10° NNW daylight
02 Aug - 20:18:23 10° N 20:23:52 62° ENE 20:28:52 10° SSE visible
